| time (UTC) | temp F | wind direction | speed MPH | gust MPH | rain 1hr in | rain 24hr in | rain mn in | humidity % | barometer mb |
| 20260506003203 | 46 | 346 | 0.0 | 0.0 | 0.01 | 0.28 | 0.01 | 84 | 1010.0 |
| 20260505233702 | 48 | 345 | 0.0 | 0.0 | 0.00 | 0.27 | 0.00 | 84 | 1010.0 |
| 20260505233203 | 48 | 350 | 0.0 | 0.0 | 0.00 | 0.27 | 0.00 | 86 | 1010.0 |
| 20260505223203 | 49 | 350 | 0.0 | 0.0 | 0.00 | 0.27 | 0.00 | 85 | 1010.1 |
| 20260505220704 | 49 | 301 | 0.0 | 0.0 | 0.00 | 0.27 | 0.00 | 85 | 1010.5 |
| 20260505220202 | 49 | 301 | 0.0 | 0.0 | 0.00 | 0.27 | 0.00 | 85 | 1010.6 |
| 20260505213702 | 51 | 266 | 0.0 | 0.0 | 0.00 | 0.27 | 0.27 | 85 | 1010.5 |
| 20260505213203 | 51 | 266 | 0.0 | 0.0 | 0.00 | 0.27 | 0.27 | 85 | 1010.5 |
| 20260505210203 | 52 | 266 | 0.0 | 0.0 | 0.06 | 0.27 | 0.27 | 85 | 1010.4 |
| 20260505203702 | 52 | 265 | 0.0 | 0.0 | 0.06 | 0.27 | 0.27 | 85 | 1010.1 |
| 20260505203203 | 52 | 265 | 0.0 | 9.0 | 0.06 | 0.27 | 0.27 | 85 | 1010.0 |
| 20260505200702 | 52 | 260 | 0.0 | 0.0 | 0.00 | 0.21 | 0.21 | 85 | 1009.9 |
| 20260505190202 | 53 | 27 | 0.0 | 0.0 | 0.12 | 0.31 | 0.21 | 84 | 1008.9 |
| 20260505173203 | 60 | 307 | 6.0 | 12.0 | 0.00 | 0.33 | 0.01 | 68 | 1008.5 |
| 20260505170703 | 62 | 241 | 0.0 | 6.0 | 0.00 | 0.33 | 0.01 | 65 | 1008.2 |
| 20260505163702 | 67 | 248 | 2.0 | 7.0 | 0.00 | 0.34 | 0.01 | 62 | 1007.7 |
| 20260505153202 | 63 | 99 | 0.0 | 0.0 | 0.00 | 0.36 | 0.01 | 72 | 1008.0 |
| 20260505150202 | 64 | 113 | 3.0 | 10.0 | 0.00 | 1.01 | 0.01 | 71 | 1007.9 |
| 20260505130201 | 62 | 115 | 5.0 | 12.0 | 0.00 | 1.65 | 0.01 | 72 | 1009.1 |
| 20260505123702 | 62 | 117 | 2.0 | 6.0 | 0.00 | 1.72 | 0.01 | 78 | 1009.2 |
| 20260505123201 | 62 | 110 | 5.0 | 10.0 | 0.00 | 1.72 | 0.01 | 77 | 1009.1 |
| 20260505113702 | 61 | 125 | 0.0 | 0.0 | 0.00 | 1.85 | 0.01 | 80 | 1009.6 |
| 20260505110201 | 57 | 65 | 0.0 | 0.0 | 0.00 | 1.85 | 0.01 | 82 | 1010.3 |
| 20260505090201 | 54 | 53 | 0.0 | 0.0 | 0.00 | 1.85 | 0.01 | 86 | 1010.8 |
| 20260505080701 | 53 | 44 | 0.0 | 0.0 | 0.00 | 1.85 | 0.01 | 85 | 1011.0 |
| 20260505073701 | 52 | 85 | 0.0 | 0.0 | 0.00 | 1.85 | 0.01 | 85 | 1011.2 |
| 20260505073201 | 53 | 84 | 0.0 | 0.0 | 0.00 | 1.85 | 0.01 | 85 | 1011.2 |
| 20260505070701 | 52 | 67 | 0.0 | 0.0 | 0.00 | 1.85 | 0.01 | 85 | 1011.3 |
| 20260505063701 | 52 | 255 | 0.0 | 0.0 | 0.00 | 1.85 | 0.01 | 84 | 1011.0 |
| 20260505060701 | 50 | 236 | 0.0 | 0.0 | 0.00 | 1.85 | 0.01 | 85 | 1011.1 |
| 20260505050201 | 47 | 221 | 0.0 | 1.0 | 0.01 | 1.85 | 0.01 | 85 | 1011.0 |
| 20260505040201 | 46 | 248 | 0.0 | 0.0 | 0.00 | 1.84 | 0.00 | 85 | 1011.0 |
| 20260505030200 | 50 | 248 | 0.0 | 0.0 | 0.00 | 1.84 | 0.00 | 85 | 1010.8 |